Location: Sawyer Lake
(45.2517°N, 88.7550°W)
Time: 21:00:12
(UTC-05:00)

Daily predictions for brighter satellites

Satellite Brightness Start Highest point End
(mag) Time Altitude Azimuth Time Altitude Azimuth Time Altitude Azimuth
Cosmos 2346 Rocket 4.4 19:09:39 10° N 19:15:43 68° E 19:21:44 10° SSE
CZ-4C R/B 2.2 19:10:29 10° SSW 19:15:44 64° ESE 19:21:40 10° NE
ATLAS CENTAUR R/B 1.4 19:12:58 10° NNW 19:17:18 69° NE 19:21:15 10° SE
HJ-1C 4.1 19:16:07 10° SE 19:19:11 34° ENE 19:22:17 10° N
USA 215 3.4 19:16:03 10° ENE 19:22:27 54° SE 19:28:48 10° SSW
Atlas Centaur 2 4.4 19:17:09 10° WSW 19:23:58 27° S 19:30:21 10° SE
Cosmos 2333 Rocket 2.3 19:18:38 10° SSW 19:24:25 89° NW 19:30:14 10° NNE
COSMO-SKYMED 1 3.1 19:21:33 10° N 19:25:53 67° WNW 19:30:10 10° SSW
Cosmos 482 Debris 4.4 19:26:33 10° W 19:28:22 30° NNW 19:30:51 10° NE
Cosmos 1484 Rocket 3.9 19:24:43 10° S 19:28:25 48° W 19:32:11 10° NNW
Cosmos 2112 Rocket 4.4 19:23:54 10° SSW 19:29:15 73° WNW 19:34:38 10° NNE
Cosmos 1452 Rocket 4.3 19:26:03 10° N 19:30:50 34° ENE 19:35:34 10° SE
Cosmos 1680 Rocket 4.3 19:29:33 10° SW 19:34:46 57° WNW 19:40:03 10° NNE
Cosmos 2034 Rocket 4.5 19:32:02 10° SSE 19:37:41 37° E 19:43:25 10° NNE
NOSS 0 Rocket 4.2 19:31:33 10° SSW 19:37:42 77° WNW 19:43:56 10° NNE
Helios 1A 3.0 19:34:25 10° SSE 19:38:31 58° ENE 19:42:39 10° N
Cosmos 1464 Rocket 4.1 19:35:26 10° SSE 19:41:28 53° E 19:47:29 10° NNE
ATLAS 3B R/B 3.7 19:35:39 10° WSW 19:43:07 55° NW 19:50:20 10° NNE
SeaSat 1 3.5 19:41:25 10° NE 19:45:18 23° ESE 19:49:10 10° SSE
Cosmos 1674 4.4 19:44:44 10° NNE 19:47:13 16° ENE 19:47:52 16° E
Cosmos 1766 3.2 19:43:39 10° S 19:47:33 64° E 19:51:31 10° NNE
Cosmos 1766 Rocket 3.8 19:43:57 10° N 19:48:13 47° ENE 19:52:25 10° SSE
In-Cosmos 22 4.4 19:42:55 10° N 19:48:36 54° ENE 19:54:13 10° SSE
Cosmos 2237 Rocket 2.8 19:49:48 10° SW 19:55:26 62° WNW 20:01:06 10° NNE
NOSS 3-2 (A) 3.6 19:50:33 10° SSW 19:56:26 53° ESE 20:02:50 10° NE
Cosmos 1953 2.7 19:55:45 10° SSE 19:59:28 39° E 20:03:12 10° NNE
CZ-4B DEB 2.9 19:57:57 13° SSE 20:00:41 54° ENE 20:03:54 10° N
USA 238 DEB 4.0 19:53:43 10° SW 20:00:45 73° NW 20:07:50 10° NE
USA 238 4.0 19:53:48 10° SW 20:00:51 74° NW 20:07:55 10° NE
CZ-2D R/B 3.5 20:01:16 14° SE 20:04:25 50° ENE 20:08:13 10° N
BREEZE-M DEB (TANK) 4.0 19:53:14 10° W 20:09:37 85° N 20:12:54 22° E
ATLAS 5 CENTAUR R/B 2.3 20:06:49 10° S 20:11:12 37° ESE 20:15:56 10° NE
SL-16 R/B 2.1 20:07:30 10° SSW 20:13:12 85° ESE 20:18:56 10° NNE
Cosmos 1891 Rocket 4.5 20:09:28 10° S 20:15:56 77° E 20:22:22 10° N
Cosmos 1076 Rocket 3.7 20:11:44 10° NNW 20:16:03 72° W 20:20:21 10° S
Spot 2 Rocket 4.2 20:12:05 10° S 20:17:01 54° W 20:21:58 10° NNW
Cosmos-2242 3.0 20:16:19 10° S 20:20:37 63° E 20:24:58 10° NNE
Cosmos 1842 Rocket 4.3 20:23:00 31° ENE 20:23:00 31° ENE 20:26:23 10° NNE
Cosmos 1805 3.1 20:18:42 10° S 20:22:36 73° E 20:26:33 10° NNE
Cosmos 1500 Rocket 4.0 20:19:20 10° N 20:23:31 40° ENE 20:24:24 36° ESE
Resurs 01 Rocket 2.8 20:19:24 10° S 20:23:38 43° W 20:27:54 10° NNW
Cosmos 1408 Rocket 3.9 20:20:34 10° NNW 20:24:55 66° W 20:29:12 10° S
H-2A R/B 2.7 20:23:12 19° SSE 20:26:00 87° E 20:29:56 10° NNW
Envisat 3.7 20:27:01 30° E 20:27:52 32° ENE 20:32:21 10° N
Helios 1B rocket 3.4 20:25:06 10° N 20:29:05 49° WNW 20:33:02 10° SW
Aureole 2 Rocket 3.7 20:27:21 10° SW 20:31:41 56° WNW 20:35:56 10° NNE
ALOS 2.6 20:27:26 10° S 20:32:04 68° WSW 20:36:45 10° NNW
NOSS 3-2 (C) 3.4 20:26:36 10° SSW 20:32:41 74° SE 20:39:21 10° NE
ASTEX 1 3.3 20:32:41 10° N 20:37:38 82° E 20:42:32 10° S
Cosmos 1758 3.6 20:35:24 10° SSW 20:39:27 70° W 20:43:34 10° N
Cosmos 1470 4.3 20:44:04 24° NNE 20:44:04 24° NNE 20:45:49 10° NNE
Cosmos 2151 4.1 20:39:23 10° N 20:42:10 29° NE 20:42:10 29° NE
Cosmos 1743 Rocket 3.7 20:46:27 10° NNW 20:50:55 74° W 20:52:51 33° S
Cosmos 1544 3.2 20:49:29 35° SSW 20:50:58 75° W 20:54:44 10° N
FENGYUN 3A 4.4 20:46:12 10° S 20:51:25 51° W 20:56:40 10° NNW
Nadezhda 4 Rocket 4.1 20:46:22 10° N 20:52:40 77° W 20:58:29 12° S
GP-B 2.9 20:50:00 10° N 20:54:27 70° E 20:54:30 70° E
ATLAS CENTAUR R/B 4.1 20:53:49 10° W 20:55:41 13° WSW 20:57:29 10° SW
Cosmos 1092 Rocket 3.9 20:50:27 10° N 20:56:43 86° E 21:00:04 29° S
Cosmos 2369 Rocket 2.4 20:52:16 10° NNW 20:57:47 51° ENE 20:58:21 49° E
Cosmos 1603 3.6 20:54:22 10° SSW 21:00:06 79° ESE 21:05:53 10° NNE
Cosmos 1939 Rocket 3.5 21:01:28 45° NNE 21:01:28 45° NNE 21:04:28 10° N
CZ-4C R/B 4.0 20:59:48 10° W 21:04:44 31° NNW 21:10:16 10° NNE
USA 215 3.8 20:59:07 10° NE 21:05:29 57° NNW 21:11:50 10° WSW
Meteor 1-11 4.3 21:04:51 10° N 21:10:31 56° ENE 21:10:31 56° ENE
Atlas Centaur 2 4.5 21:07:21 10° WSW 21:12:25 18° SSW 21:14:28 16° S
Cosmos 1634 Rocket 3.8 21:09:54 37° S 21:12:31 77° E 21:18:44 10° N
SJ-11-01 4.3 21:12:14 72° SSW 21:12:35 77° WSW 21:17:18 10° NNW
Cosmos 1943 Rocket 3.2 21:07:59 10° N 21:12:33 32° NE 21:12:33 32° NE
Cosmos 2026 Rocket 3.8 21:08:34 10° N 21:14:38 68° E 21:15:08 65° ESE
ERS-1 Rocket 2.8 21:14:27 76° S 21:14:50 86° WSW 21:19:54 10° NNW
Exosat Rocket 4.4 21:08:49 10° NNW 21:15:04 65° ENE 21:16:53 51° ESE
SPOT 5 4.1 21:17:09 27° NNE 21:17:09 27° NNE 21:19:25 10° N
Cosmos 1674 4.0 21:19:26 10° NNW 21:22:49 39° W 21:22:49 39° W
SeaSat 1 3.1 21:18:15 10° NNE 21:23:06 55° WNW 21:27:54 10° SW
Cosmos 839 Rocket 4.1 21:20:59 10° NW 21:29:00 85° ENE 21:29:59 68° SE
H-2A R/B 3.5 21:34:40 33° N 21:34:40 33° N 21:37:11 10° N
H-2A R/B 4.0 21:55:27 20° NNE 21:55:27 20° NNE 21:57:11 10° N
ATLAS 5 CENTAUR R/B 3.2 21:51:18 10° WSW 21:55:52 38° NW 21:58:05 26° N
Envisat 4.4 22:07:14 34° W 22:07:14 34° W 22:11:27 10° NNW
ARGOS 4.5 22:20:24 36° NNW 22:20:24 36° NNW 22:23:31 10° NNW
Terra 4.4 22:39:03 15° N 22:39:03 15° N 22:39:55 10° N
Cosmos 2369 Rocket 4.1 22:36:52 10° NW 22:40:08 24° W 22:40:08 24° W
Cosmos 1943 Rocket 4.1 22:51:37 10° NW 22:54:05 25° NW 22:54:05 25° NW
